Theta_e
313 313 314 314 314 314 314 313 312 311 311 311 311 311 312 313 314 316 316 317 319 322 324 326 327 327 325 324 325 326 326 326 326 326 328 330 337 337 334 334 334 333 335
312 311 311 311 311 310 310 310 310 309 309 309 309 309 309 310 311 311 312 315 317 318 320 323 325 325 325 323 324 323 324 325 326 328 329 331 334 335 334 334 332 337 335
311 310 310 310 310 309 309 308 308 307 307 307 306 306 306 307 307 307 309 310 310 315 317 320 322 323 323 323 323 324 322 324 325 325 327 329 332 335 335 334 333 332 330
310 309 309 309 309 308 307 307 306 305 305 305 304 304 304 303 303 304 305 306 308 310 314 316 318 322 323 323 322 323 322 323 323 324 327 326 332 332 337 336 334 334 330
308 308 308 308 307 307 306 306 305 306 305 304 303 303 303 303 303 303 303 303 306 306 308 314 316 317 322 322 322 321 321 321 322 323 325 326 328 333 335 334 335 336 333
308 308 307 307 307 307 306 306 305 305 304 303 305 305 304 302 303 302 301 301 302 303 304 306 310 314 318 320 321 321 321 321 322 323 323 325 328 332 333 334 333 334 336
307 307 307 307 307 306 306 306 305 306 304 304 306 303 304 302 302 301 301 301 302 303 304 305 308 310 314 318 320 319 318 317 317 319 321 322 325 329 333 334 334 335 335
306 306 307 307 307 307 307 306 305 304 303 304 303 304 304 303 302 302 301 302 302 303 304 304 305 307 310 314 319 321 320 319 319 316 314 315 317 329 333 333 331 327 331
305 306 306 305 305 307 306 305 304 305 304 303 303 305 304 303 303 303 303 302 303 304 305 306 307 309 308 312 316 319 321 321 320 321 318 314 318 329 333 332 327 329 332
302 303 303 303 304 306 306 305 305 305 304 303 304 304 304 305 306 305 305 304 305 306 307 309 311 310 311 309 313 317 318 318 319 321 320 322 323 325 330 329 329 330 329
304 306 306 303 304 306 305 304 305 305 303 303 304 306 307 307 307 308 308 308 308 308 308 311 315 315 312 309 314 315 317 318 318 320 323 324 326 326 328 328 329 330 330
304 306 304 304 307 305 304 306 306 305 305 306 307 308 308 310 311 310 310 311 311 309 311 313 315 316 315 311 312 312 315 318 321 324 325 326 327 329 328 329 329 328 329
304 306 306 307 307 305 305 306 305 306 307 307 307 309 309 312 314 313 314 315 315 314 314 315 316 315 316 316 317 317 316 320 322 325 326 327 327 328 329 328 328 330 329
304 306 306 307 306 305 306 306 307 307 308 308 307 307 310 311 314 314 314 314 314 315 314 315 316 315 317 315 316 316 316 322 324 325 327 327 327 326 327 328 329 329 326
303 305 305 306 306 305 307 307 308 308 308 308 308 309 310 313 314 315 314 314 315 315 315 315 314 315 316 316 316 319 323 324 325 326 326 325 325 326 327 327 328 326 321
301 303 304 306 306 306 305 307 308 309 309 309 309 309 313 313 315 316 316 316 314 313 314 316 317 318 318 319 320 322 323 323 322 323 325 321 322 319 319 317 317 320 320
298 300 302 303 304 305 304 304 306 307 308 310 310 310 315 315 317 314 314 313 315 312 313 314 314 314 314 315 316 318 318 315 316 317 319 317 315 315 317 314 320 321 318
295 297 299 299 300 302 302 303 300 301 302 304 307 309 313 316 316 315 315 315 317 317 314 314 315 316 316 315 313 313 317 317 313 313 315 314 315 314 318 323 322 323 324
292 294 296 296 298 298 300 301 303 301 300 301 304 309 310 314 316 317 318 319 318 318 317 316 316 317 318 320 319 318 315 319 319 317 319 321 322 320 319 316 322 328 327
291 291 291 293 296 298 298 299 300 301 299 299 302 304 308 312 313 315 317 318 318 319 318 317 319 319 315 314 319 320 322 322 323 323 323 324 324 325 326 328 328 328 328
291 291 290 292 292 294 294 295 296 296 296 297 299 300 304 305 309 309 312 315 314 316 318 318 317 319 317 317 316 316 318 319 322 324 324 323 323 323 326 327 328 329 329
290 290 290 291 291 291 290 292 293 292 295 296 298 300 303 303 306 308 310 311 312 313 315 318 319 319 320 319 318 318 319 319 319 321 323 324 325 324 323 323 325 327 328
288 289 289 290 289 290 291 291 291 290 290 293 295 296 300 301 302 305 308 310 311 312 313 313 315 318 320 321 320 319 319 319 320 321 322 324 324 324 324 324 324 324 325
287 288 288 288 288 289 289 290 290 290 289 290 290 293 292 296 300 303 304 306 308 311 312 312 312 313 315 318 320 320 320 319 319 320 320 321 322 322 322 323 324 325 325
286 286 286 286 287 287 287 288 288 288 289 289 288 288 290 292 294 297 301 305 306 308 311 311 312 313 314 313 316 318 318 318 319 319 319 319 319 320 319 319 319 321 324
286 285 284 284 284 284 284 285 286 286 287 287 287 286 287 288 291 292 294 297 300 304 307 310 311 311 312 314 314 314 316 317 317 317 319 320 320 319 319 318 318 317 318
Wind_Speed
18 20 22 23 23 25 26 26 25 24 26 27 28 29 30 29 28 30 32 35 39 40 42 46 43 41 40 38 37 36 36 34 37 36 35 33 27 26 26 24 26 29 30
16 16 16 17 17 18 20 22 23 25 25 26 27 28 28 28 28 30 32 33 35 39 41 46 45 44 43 46 41 38 37 34 34 34 34 33 32 30 32 32 32 19 22
15 15 16 17 19 20 22 23 24 25 26 27 27 28 29 28 29 31 32 34 37 38 42 42 47 47 49 46 44 41 38 36 34 35 33 36 36 31 27 31 34 32 32
14 15 17 18 20 21 23 24 25 25 27 28 30 30 29 30 31 30 31 36 37 39 39 43 44 44 47 47 47 43 40 37 33 36 34 34 35 34 30 28 28 27 34
14 16 17 19 20 22 23 24 26 27 30 31 33 32 32 34 34 30 30 33 35 39 44 36 37 44 43 45 45 44 41 38 38 35 34 32 39 33 30 30 27 29 29
15 17 18 19 21 22 24 26 28 28 30 30 28 31 32 34 32 32 33 36 38 40 40 44 41 35 35 44 45 43 38 36 36 34 32 32 34 36 34 32 35 35 31
16 17 18 20 22 23 25 26 27 28 28 29 30 34 30 33 31 31 31 33 33 33 35 38 34 39 37 33 39 44 45 44 42 37 36 36 34 36 35 32 33 35 35
16 17 18 20 24 25 26 27 30 31 31 30 33 28 30 31 33 33 31 31 30 32 36 37 40 38 44 32 25 32 35 39 42 45 44 42 37 35 34 39 32 28 32
16 17 19 22 25 26 28 29 31 31 30 32 28 27 29 31 29 26 25 25 28 29 30 32 34 37 44 41 30 27 28 31 32 36 36 37 39 35 32 31 25 23 26
17 20 21 23 24 27 31 29 29 29 33 30 27 28 27 31 25 19 16 18 23 27 29 32 31 35 38 46 38 29 29 34 32 34 34 37 39 43 38 35 27 25 30
21 22 22 22 24 27 27 26 26 29 27 23 23 27 24 20 18 14 15 19 25 28 31 29 24 22 32 40 35 31 33 32 36 35 33 35 40 42 43 42 38 33 33
20 19 19 23 23 24 23 24 25 23 19 24 27 25 23 25 23 23 21 25 27 31 32 32 28 18 22 36 44 44 39 33 32 32 32 33 35 37 42 41 32 29 27
16 16 18 21 22 21 23 23 20 17 24 23 24 26 31 26 26 26 22 21 19 22 26 31 30 29 24 28 29 32 30 31 31 35 31 34 31 31 33 28 29 25 25
15 15 18 20 19 18 19 16 17 17 23 26 26 28 29 28 31 26 23 23 26 29 29 20 18 21 21 26 28 26 29 30 30 24 30 28 29 29 30 32 32 31 27
15 16 18 19 18 18 18 16 14 16 16 25 33 37 32 36 35 31 28 28 29 22 13 14 11 16 24 27 24 19 23 27 31 26 25 24 22 28 34 34 39 32 23
17 16 18 18 18 19 19 16 14 15 22 24 31 37 31 30 30 24 10 3 18 27 21 25 18 18 20 25 28 28 27 21 25 24 24 24 27 23 24 26 22 24 29
19 17 17 18 18 18 21 20 23 19 14 19 28 33 29 31 27 26 30 40 27 31 28 30 32 33 36 36 33 29 32 29 24 18 21 22 22 20 23 23 23 24 26
23 19 17 18 18 18 18 19 18 19 23 24 23 31 32 25 29 18 15 11 10 18 19 22 23 20 20 25 34 29 23 25 25 22 15 18 18 22 23 24 26 26 25
17 25 23 20 18 19 19 20 19 20 20 21 23 26 32 30 19 17 24 16 13 17 16 12 13 16 17 19 19 19 17 17 20 20 17 19 20 21 22 27 26 25 28
18 22 22 25 24 21 21 23 22 21 23 22 21 26 31 29 26 23 24 28 27 15 16 15 11 11 16 18 16 17 18 18 17 17 16 15 15 14 19 22 21 20 21
18 19 23 18 22 27 26 25 24 25 23 23 20 19 19 24 24 27 23 19 24 27 17 15 13 14 13 13 12 12 12 12 13 13 14 15 16 14 11 13 18 17 18
18 19 19 20 19 21 25 29 27 25 27 26 24 20 17 18 19 21 21 21 18 19 18 16 13 11 11 10 10 10 11 12 13 13 14 15 14 14 13 13 12 11 18
19 19 19 19 21 21 21 21 23 24 25 28 29 26 23 20 20 18 16 17 16 14 14 14 13 15 12 9 7 7 7 9 10 12 14 15 14 14 13 14 13 12 12
18 19 19 19 21 21 22 22 21 24 24 24 26 29 27 24 21 18 16 14 11 10 10 9 9 10 11 11 7 5 5 6 7 9 12 13 14 14 12 10 9 10 11
18 19 19 19 21 21 22 22 22 23 22 23 24 25 27 27 25 21 16 12 12 9 6 5 5 4 6 12 4 8 9 11 12 11 7 8 9 10 9 9 8 8 9
18 19 18 19 20 20 21 22 22 23 23 23 23 23 23 24 26 26 23 19 16 11 8 9 8 8 3 6 6 5 10 14 15 14 13 8 8 7 6 6 6 5 6
Wind_Direction
305 300 299 299 298 297 296 295 292 290 290 289 287 286 282 280 277 273 269 263 257 256 253 246 243 241 241 245 245 248 251 254 257 255 250 254 256 261 260 250 250 244 246
309 308 307 306 305 303 300 298 296 295 293 290 287 283 281 279 277 275 271 264 262 260 256 252 246 243 240 240 243 246 247 249 256 255 251 248 257 256 260 253 243 239 240
309 310 309 308 308 307 306 303 301 299 296 292 288 285 283 280 278 273 273 272 268 259 256 253 253 244 241 239 241 242 245 248 256 255 251 251 248 251 257 253 242 245 247
309 310 309 309 308 308 307 304 302 301 300 298 295 290 287 286 283 279 278 271 262 261 258 254 253 250 244 239 237 236 239 244 250 252 247 252 247 245 243 242 243 238 237
308 310 310 312 311 307 309 309 305 305 301 296 296 291 287 281 283 280 276 273 268 266 259 251 255 253 248 243 238 236 238 240 245 250 248 248 247 239 238 236 231 217 219
308 309 312 314 315 316 309 310 304 304 306 304 296 292 291 290 288 285 284 278 270 268 266 258 255 260 252 243 238 238 236 239 242 244 249 250 248 244 239 236 227 218 212
303 306 310 315 313 310 311 308 307 305 305 305 299 301 292 292 288 287 285 281 271 265 266 257 257 255 247 247 241 237 235 238 241 246 249 248 252 242 234 227 215 214 208
302 305 309 311 308 313 314 312 313 318 315 310 306 298 294 293 295 289 286 282 270 265 266 264 257 255 247 244 241 238 234 240 247 246 247 252 254 242 229 228 217 228 227
307 309 309 306 311 309 315 315 316 319 317 315 308 299 297 295 298 295 290 279 270 268 265 261 258 251 244 232 234 250 239 246 252 250 255 256 242 235 228 218 212 222 218
308 309 309 311 309 320 325 324 325 324 320 313 304 299 300 306 303 292 286 278 276 273 267 275 264 248 247 236 235 243 249 253 254 252 245 239 236 235 239 239 229 237 216
306 312 316 312 319 326 329 323 328 331 323 314 312 324 318 314 318 315 300 283 280 277 278 290 284 260 243 230 230 244 259 257 258 247 237 239 234 232 234 239 248 223 216
317 322 321 321 328 332 325 334 337 333 319 329 331 329 321 318 312 299 290 281 278 274 278 286 284 266 248 234 239 251 255 255 248 235 228 236 229 231 232 239 230 224 212
331 331 333 333 336 339 339 346 341 330 335 327 325 322 327 322 313 307 309 305 297 299 300 290 277 272 257 240 235 238 251 251 231 231 221 223 228 220 218 214 211 201 195
340 340 342 341 342 349 356 359 335 329 340 357 345 335 327 319 320 314 306 300 307 311 306 295 278 266 242 237 239 232 259 220 227 220 204 208 217 214 207 202 192 184 188
348 343 345 347 349 349 359 356 355 360 347 0 358 352 344 337 325 309 303 302 312 319 311 307 266 227 231 233 242 226 196 200 197 186 194 185 184 178 169 177 165 159 162
354 349 348 352 353 350 344 345 352 359 350 352 349 352 1 355 335 333 323 19 78 60 47 56 82 113 126 134 147 158 172 155 157 164 163 144 141 137 130 138 148 166 180
359 352 351 359 354 354 349 343 338 345 347 359 342 358 10 27 40 67 94 102 94 69 68 69 67 81 88 99 109 111 128 108 137 131 140 138 135 145 153 173 187 189 182
9 6 358 0 1 360 358 354 347 345 343 347 348 6 20 47 57 86 66 90 63 81 74 69 61 83 92 99 96 109 120 121 134 153 157 160 172 181 185 193 190 189 186
1 9 12 8 9 13 8 6 4 3 357 353 351 11 19 42 61 51 54 57 62 68 92 67 63 60 88 102 118 140 134 137 148 167 172 171 176 183 193 196 184 180 180
4 1 9 9 14 17 16 17 16 12 10 8 5 5 14 27 40 44 55 55 48 61 63 71 80 91 85 86 97 110 120 127 133 142 147 150 157 165 168 171 169 165 169
6 4 6 10 4 13 20 19 21 21 17 16 11 3 21 25 26 39 45 57 53 37 58 68 62 71 101 106 108 112 115 121 126 133 134 133 140 149 147 156 161 162 162
11 8 8 7 9 8 7 8 15 16 21 19 21 14 10 23 29 28 36 45 56 62 35 41 54 61 56 94 105 102 106 114 120 131 137 136 134 132 129 133 146 153 178
15 13 13 10 9 12 11 10 5 7 7 13 18 21 20 14 17 20 20 30 38 46 72 66 44 41 46 50 87 95 98 103 114 124 133 138 140 137 136 137 139 143 155
18 18 15 14 9 14 11 10 9 5 6 5 7 16 16 17 13 14 7 2 16 27 29 46 70 81 50 50 49 76 109 113 108 119 122 131 138 138 142 145 147 142 150
19 18 15 16 14 12 10 10 8 7 8 3 3 5 7 10 12 10 9 357 347 329 333 341 11 74 86 40 154 172 184 171 153 161 148 140 144 143 145 145 148 163 177
16 14 15 14 14 12 10 9 7 4 6 1 0 0 1 0 2 6 4 358 352 344 313 286 287 285 270 210 206 202 189 189 191 186 171 189 186 184 187 181 176 176 188